Location: Bietingen
(47.9712°N, 9.0322°E)
Time: 08:41:34
(UTC+00:00)

Daily predictions for brighter satellites

Satellite Brightness Start Highest point End
(mag) Time Altitude Azimuth Time Altitude Azimuth Time Altitude Azimuth
Cosmos 1814 Rocket 4.3 17:03:40 10° S 17:08:41 46° ESE 17:13:42 10° NNE
ATLAS 3B R/B 4.1 17:02:54 10° NW 17:10:20 50° WSW 17:17:21 10° S
NOSS 7 (A) 4.4 17:08:52 10° NW 17:11:46 78° NE 17:14:53 10° SE
Cosmos 1125 Rocket 4.3 17:08:26 10° N 17:13:01 31° NE 17:17:36 10° ESE
IRS-1C 4.2 17:07:44 10° SSE 17:13:04 86° WSW 17:18:26 10° NNW
YAOGAN 1 2.8 17:16:25 10° SE 17:20:29 47° ENE 17:24:36 10° N
Cosmos 2123 Rocket 4.0 17:15:00 10° S 17:21:19 79° E 17:27:38 10° N
Cosmos 1900 4.5 17:17:33 10° SW 17:22:40 83° NW 17:27:44 10° NE
Okean 2 Rocket 3.5 17:18:49 10° N 17:22:57 38° ENE 17:27:01 10° SE
NOSS 3-3 (C) 4.3 17:18:20 10° S 17:22:57 35° ESE 17:28:19 10° NE
Spot 4 Rocket 4.2 17:20:52 10° SE 17:25:45 47° ENE 17:30:39 10° N
Okean 1 Rocket 3.6 17:22:20 10° N 17:26:25 36° ENE 17:30:27 10° SE
COSMOS 2428 2.7 17:22:52 10° NNW 17:28:35 65° ENE 17:34:15 10° SE
Cosmos 1980 4.3 17:26:58 10° NNW 17:32:11 36° NE 17:37:21 10° ESE
ARIANE 5 R/B 3.3 17:27:19 10° S 17:32:22 58° W 17:37:23 10° NNW
Sich 1 Rocket 4.1 17:28:12 10° N 17:32:31 40° ENE 17:36:48 10° SE
Cosmos 158 Rocket 3.8 17:31:50 10° SSW 17:36:40 73° ESE 17:41:32 10° NNE
Cosmos 2237 Rocket 2.8 17:32:34 10° NNW 17:37:49 37° NE 17:43:02 10° ESE
Aureole 3 Rocket 3.5 17:34:00 10° N 17:37:52 31° ENE 17:40:58 10° SE
ATLAS 5 CENTAUR R/B 2.4 17:35:06 10° NW 17:39:21 59° SW 17:44:36 10° SSE
SeaSat 1 3.3 17:34:35 10° SSE 17:39:23 55° WSW 17:44:12 10° NW
Cosmos 192 4.2 17:34:44 10° NNW 17:39:38 71° ENE 17:44:29 10° SSE
Cosmos 1378 Rocket 3.5 17:35:32 10° S 17:39:51 90° ESE 17:44:10 10° N
USA 234 4.4 17:34:17 10° SSE 17:40:31 46° SW 17:46:48 10° WNW
Resurs 01 Rocket 2.1 17:36:49 10° SE 17:40:51 37° ENE 17:44:55 10° N
SKYMED 2 3.5 17:38:59 10° NNE 17:43:22 88° ESE 17:47:42 10° SSW
GP-B 3.5 17:39:26 10° S 17:43:46 68° W 17:48:09 10° N
Cosmos 2219 Rocket 4.0 17:42:24 10° NW 17:47:26 35° WSW 17:52:27 10° S
COSMO-SKYMED 1 2.5 17:43:35 10° NNE 17:47:40 57° E 17:51:43 10° S
Cosmos 2228 4.3 17:46:06 10° NNE 17:49:03 18° ENE 17:49:16 18° ENE
Cosmos 2292 Rocket 4.1 17:46:41 10° SSW 17:49:25 38° WNW 17:52:16 10° N
PSLV R/B 3.4 17:46:35 10° SSE 17:50:39 61° ENE 17:54:43 10° N
NOSS 3-3 (A) 3.7 17:46:33 10° SSW 17:51:36 64° SE 17:57:36 10° NE
Cosmos 2322 3.9 17:47:06 10° NNW 17:52:49 78° WSW 17:58:31 10° SSE
Resurs 1-3 3.8 17:50:05 10° S 17:54:22 75° WSW 17:58:42 10° NNW
USA 306 1.0 17:51:50 10° WNW 17:54:39 74° NNE 17:55:02 51° E
Cosmos 2016 Rocket 4.4 17:48:40 10° NNW 17:54:51 68° W 18:01:05 10° S
Cosmos 1025 Rocket 2.9 17:53:53 10° S 17:58:09 78° E 18:02:30 10° NNE
SJ-7 4.0 17:54:44 10° SSE 17:58:26 86° ENE 18:02:08 10° NNW
Cosmos 2285 Rocket 4.0 17:53:22 10° NNW 17:59:48 64° ENE 18:06:08 10° SE
SL-16 R/B 3.5 17:56:47 10° N 18:00:58 21° NE 18:02:27 19° ENE
Cosmos 1375 Rocket 4.5 17:56:22 10° SSW 18:02:40 69° ESE 18:09:06 10° NE
Cosmos 2227 Rocket 3.4 17:59:53 10° SE 18:03:35 20° ESE 18:03:35 20° ESE
SJ-6B 2.8 18:05:12 16° SE 18:07:37 42° ENE 18:10:55 10° N
SPOT 5 3.7 18:08:20 25° E 18:09:35 28° ENE 18:13:50 10° N
NOSS 3-4 (A) 4.0 18:03:35 10° NW 18:09:59 53° NE 18:15:10 20° ESE
NOSS 3-4 (C) 4.0 18:03:50 10° NW 18:10:16 52° NE 18:15:23 21° ESE
Cosmos 2233 Rocket 4.4 18:04:36 10° NNW 18:10:49 69° W 18:17:04 10° S
CZ-2D R/B 4.0 18:08:28 10° S 18:12:17 55° W 18:16:12 10° NNW
Cosmos 1674 Rocket 4.2 18:10:06 10° SSW 18:14:24 58° WNW 18:18:47 10° N
Cosmos 1315 Rocket 4.5 18:13:18 10° NNW 18:16:45 34° W 18:20:12 10° SSW
Cosmos 1513 Rocket 4.5 18:12:32 10° N 18:18:46 63° ENE 18:25:03 10° SSE
CZ-4 R/B 3.4 18:28:09 14° NNE 18:28:09 14° NNE 18:28:47 10° N
ATLAS 2AS CENTAUR R/B 4.3 18:20:22 10° WNW 18:25:56 25° NNW 18:31:15 11° NE
CZ-4B R/B 4.3 18:26:45 24° NE 18:26:45 24° NE 18:30:16 10° N
Helios 1A Rocket 4.0 18:28:45 22° SSE 18:28:45 22° SSE 18:30:04 10° S
Lacrosse 5 rocket 2.4 18:23:55 10° W 18:27:05 31° NNW 18:28:21 24° NNE
Atlas Centaur 2 4.4 18:23:07 10° SW 18:27:30 17° S 18:30:59 11° SE
Meteor 1-31 Rocket 4.4 18:32:59 19° N 18:32:59 19° N 18:34:10 10° N
CZ-4C R/B 2.2 18:28:02 10° SW 18:32:17 60° NW 18:36:09 18° NNE
IRAS Rocket 4.2 18:28:36 10° SSE 18:34:13 89° WSW 18:39:53 10° NNW
CARTOSAT-1 4.4 18:30:20 10° S 18:34:23 49° W 18:38:30 10° NNW
CRYOSAT 2 4.3 18:33:03 10° N 18:37:59 87° W 18:42:51 10° S
Tiangong 0.7 18:36:54 10° S 18:37:06 11° S 18:37:06 11° S
USA 267 4.0 18:41:48 23° NE 18:45:29 43° N 18:51:35 10° WNW
CSL-04 Debris 4.2 18:44:38 40° SE 18:46:19 57° ENE 18:51:39 10° N
Cosmos 1464 Rocket 3.9 18:40:09 10° N 18:46:33 71° E 18:52:50 10° SSE
ERS-1 Rocket 4.3 18:48:48 23° NNE 18:48:48 23° NNE 18:51:14 10° N
Cosmos 2297 Rocket 2.1 18:42:39 10° SSW 18:48:19 87° WNW 18:52:37 18° NNE
CSL-04 Rocket 3.5 18:47:26 40° SE 18:49:15 64° ENE 18:54:29 10° N
Cosmos 1570 Rocket 3.9 18:43:59 10° SSW 18:49:16 84° ESE 18:52:48 22° NNE
Cosmos 2344 3.8 18:43:20 10° S 18:50:36 39° ESE 18:51:12 38° ESE
BREEZE-M DEB (TANK) 4.3 18:47:01 10° WNW 18:51:04 71° SSW 18:56:52 28° SE
Cosmos 1975 Rocket 3.6 18:47:40 10° S 18:50:38 42° SSE 18:50:38 42° SSE
Cosmos 1455 Rocket 3.4 18:47:50 10° NNW 18:52:04 61° W 18:56:18 10° S
DNEPR-1 R/B 4.0 18:49:06 10° NNW 18:53:51 58° NE 18:54:13 57° ENE
PAYLOAD B 4.3 19:05:27 58° ENE 19:05:27 58° ENE 19:10:44 10° N
Cosmos 2208 Rocket 3.8 19:01:14 10° SSW 19:06:28 85° ESE 19:07:29 59° NNE
Terra 3.8 19:11:53 17° N 19:11:53 17° N 19:13:08 10° N
NOSS 3-3 (C) 4.5 19:08:21 10° WSW 19:13:33 50° NW 19:16:44 27° NNE
Resurs 01 Rocket 3.8 19:13:39 10° SSW 19:17:18 25° W 19:20:59 10° NW
Cosmos 2263 Rocket 4.4 19:16:23 10° S 19:16:38 11° S 19:16:38 11° S
Cosmos 2237 Rocket 3.2 19:16:36 10° NW 19:21:57 43° WSW 19:25:52 18° S
Cosmos 44 Rocket 3.9 19:17:43 10° SW 19:21:20 51° SW 19:21:20 51° SW
Cosmos 773 Rocket 4.3 19:18:37 10° SSW 19:23:51 67° WNW 19:25:06 49° N
Cosmos 2228 4.1 19:22:17 10° NNW 19:25:36 42° WNW 19:25:36 42° WNW
Orbus 7S? 4.2 19:22:22 10° NW 19:28:58 62° W 19:28:58 62° W
Cosmos 2150 Rocket 4.5 19:28:46 10° NNW 19:33:49 55° WSW 19:33:58 55° WSW
Cosmos 2298 Rocket 4.4 19:29:22 10° NNW 19:34:34 59° WSW 19:34:42 59° WSW
SL-16 R/B 2.8 19:40:11 10° NNW 19:44:20 50° NNW 19:44:20 50° NNW
Cosmos 2227 Rocket 3.0 19:41:39 10° SW 19:45:30 44° SW 19:45:30 44° SW
SPOT 5 4.0 19:47:23 41° W 19:47:23 41° W 19:52:03 10° NNW
BREEZE-M DEB (TANK) 4.1 19:57:43 10° W 20:10:45 65° WSW 20:10:45 65° WSW
ATLAS 2AS CENTAUR R/B 4.3 20:14:00 10° NW 20:18:40 22° N 20:18:40 22° N
CZ-4C R/B 4.2 20:17:57 10° WNW 20:21:06 21° NNW 20:21:06 21° NNW
USA 267 4.3 20:29:08 39° NNW 20:29:08 39° NNW 20:33:50 10° WNW
Cosmos 2297 Rocket 4.4 20:29:03 10° W 20:33:11 20° NW 20:34:29 19° NNW
